Regional Weather Roundup
Issued by NWS

Home | Current Version | Previous Version | Text Only | Print | Product List | Glossary Off
Versions: 1 2 3 4 5 6 7 8 9 10 11 12 13 14 15 16 17 18 19 20 21 22 23 24 25 26 27 28 29 30 31 32 33 34 35 36 37 38 39 40 41 42 43 44 45 46 47 48 49 50

494
ASUS43 KDMX 221601
RWRIA

WEATHER ROUNDUP FOR IOWA
NATIONAL WEATHER SERVICE DES MOINES IA
1100 AM CDT SUN OCT 22 2017

NOTE: "FAIR" INDICATES FEW OR NO CLOUDS BELOW 12,000 FEET WITH NO
SIGNIFICANT WEATHER AND/OR OBSTRUCTIONS TO VISIBILITY.

* - THESE STATIONS ARE NOT NWS STATIONS...THUS NOT UNDER NWS
QUALITY CONTROL.  THEY ALSO DO NOT REPORT WEATHER SUCH
AS PRECIPITATION OR FOG.

IAZ001>003-012>014-020>022-031>034-043>046-221700-
   NORTHWEST IOWA

CITY           SKY/WX    TMP DP  RH WIND       PRES   REMARKS
CHEROKEE *     SUNNY     54  40  61 W5        30.09R
DENISON *      SUNNY     54  43  66 W7        30.12S
LE MARS *      SUNNY     55  36  47 CALM      30.08R
ORANGE CITY *  SUNNY     54  41  62 W6        30.07R
SHELDON *      SUNNY     54  37  54 W5        30.05S
SIOUX CITY     SUNNY     54  38  54 CALM      30.10S
SPENCER        SUNNY     55  38  52 W9        30.07R
STORM LAKE *   SUNNY     55  39  54 W9        30.08S
$$

IAZ055>058-069>071-079>083-090>094-221700-
   SOUTHWEST IOWA

CITY           SKY/WX    TMP DP  RH WIND       PRES   REMARKS
ATLANTIC *     SUNNY     57  43  58 W12       30.11R
AUDUBON *      SUNNY     57  45  62 W5        30.11R
CLARINDA *     SUNNY     57  43  58 VRB3      30.14S
COUNCIL BLFS * SUNNY     57  39  51 SW5       30.12S
CRESTON *      CLOUDY    55  45  67 NW14      30.11R
HARLAN  *      SUNNY     57  41  54 W9        30.15R
LAMONI         MOSUNNY   55  44  66 NW10      30.09R
RED OAK *      SUNNY     59  43  55 W8        30.12S
SHENANDOAH *   SUNNY     59  41  51 W6        30.13F
$$

IAZ047>049-059>061-072>074-084-221700-
   CENTRAL IOWA

CITY           SKY/WX    TMP DP  RH WIND       PRES   REMARKS
AMES           PTSUNNY   56  43  61 NW9       30.07S
ANKENY *       PTSUNNY   54  45  71 NW8       30.08S
BOONE *        CLOUDY    55  43  62 NW10      30.06S
CHARITON *     PTSUNNY   52  46  82 NW12      30.08R
DES MOINES     CLOUDY    54  43  66 NW7       30.08R
GRINNELL*      CLOUDY    51  47  85 NW7       30.07R
KNOXVILLE *    CLOUDY    52  46  82 NW10      30.06R
MARSHALLTOWN   CLOUDY    51  47  86 NW9       30.05R
NEWTON *       CLOUDY    52  45  76 NW10      30.07R
PELLA *        CLOUDY    52  46  81 NW8       30.08R
PERRY *          N/A     59  42  53 W6        30.08S
$$

IAZ004>006-015-016-023>025-035-036-221700-
   NORTH CENTRAL IOWA

CITY           SKY/WX    TMP DP  RH WIND       PRES   REMARKS
ALGONA *       SUNNY     57  41  54 W12       30.07R
CLARION *      MOSUNNY   54  45  71 W12       30.06S
ESTHERVILLE    SUNNY     55  38  52 W6        30.05R
FORT DODGE *   CLOUDY    55  42  61 W7        30.08R
MASON CITY     CLOUDY    53  42  66 W9        30.06R
FOREST CITY *    N/A     50  43  76 W8        30.05S
WEBSTER CITY * PTSUNNY   57  43  58 W13       30.05S
IOWA FALLS *     N/A     51  45  78 NW8       30.07S
$$

IAZ007>011-017>019-026>030-037>042-050>054-066-221700-
   NORTHEAST IOWA

CITY           SKY/WX    TMP DP  RH WIND       PRES   REMARKS
CEDAR RAPIDS   CLOUDY    53  48  83 N6        30.02S
CHARLES CITY * CLOUDY    50  46  87 NW8       30.05R
CLINTON *      LGT RAIN  53  50  89 NW15      30.00R
DECORAH *      CLOUDY    50  46  87 NW3       30.02R
DUBUQUE        LGT RAIN  51  47  86 NW12      30.03R
MONTICELLO *   CLOUDY    52  48  87 NW12      30.03R
OELWEIN *      CLOUDY    52  48  87 NW7       30.05R
WATERLOO       CLOUDY    50  46  86 NW5       30.04R
$$

IAZ064-065-067-068-078-221700-
   EAST CENTRAL IOWA

CITY           SKY/WX    TMP DP  RH WIND       PRES   REMARKS
DAVENPORT      LGT RAIN  53  50  89 NW10      30.02R
IOWA CITY      CLOUDY    54  48  80 N6        30.04R
MUSCATINE *    CLOUDY    54  48  82 NW12      30.04R
QUAD CITIES    CLOUDY    54  49  83 NW13G24   29.99S
$$

IAZ062-063-075>077-085>089-095>099-221700-
   SOUTHEAST IOWA

CITY           SKY/WX    TMP DP  RH WIND       PRES   REMARKS
BURLINGTON     LGT RAIN  53  50  89 N9        30.01R
FAIRFIELD *    CLOUDY    54  46  76 N8        30.03F
FORT MADISON * CLOUDY    54  52  94 NW12G17   30.05R
KEOKUK *       CLOUDY    52  50  93 NW12G17   30.04R
OSKALOOSA *    CLOUDY    52  48  87 NW8       30.06R
OTTUMWA        CLOUDY    53  50  89 NW7       30.05R
WASHINGTON *   CLOUDY    52  50  93 N7        30.03F
$$

ABBREVIATIONS USED IN REMARKS
   TC - TEMPERATURES IN CELSIUS
  WCI - WIND CHILL INDEX
   HX - HEAT INDEX
  VSB - VISIBILITY
$$





USA.gov is the U.S. government's official web portal to all federal, state and local government web resources and services.